TimePST,TemperatureF,Dew PointF,Humidity,Sea Level PressureIn,VisibilityMPH,Wind Direction,Wind SpeedMPH,Gust SpeedMPH,PrecipitationIn,Events,Conditions,WindDirDegrees,DateUTC
12:53 AM,48.0,46.0,93,30.12,9.0,Calm,Calm,-,N/A,,Scattered Clouds,0,2012-11-06 08:53:00
1:21 AM,46.4,46.4,100,30.12,7.0,Calm,Calm,-,N/A,,Mostly Cloudy,0,2012-11-06 09:21:00
1:26 AM,46.4,46.4,100,30.12,2.5,Calm,Calm,-,N/A,,Scattered Clouds,0,2012-11-06 09:26:00
1:31 AM,46.4,44.6,93,30.12,1.0,Calm,Calm,-,N/A,,Mist,0,2012-11-06 09:31:00
1:39 AM,46.4,44.6,93,30.12,2.0,Calm,Calm,-,N/A,,Scattered Clouds,0,2012-11-06 09:39:00
1:53 AM,46.9,46.0,97,30.12,1.0,Calm,Calm,-,N/A,,Mist,0,2012-11-06 09:53:00
2:00 AM,46.4,44.6,93,30.11,0.5,Calm,Calm,-,N/A,Fog,Fog,0,2012-11-06 10:00:00
2:19 AM,46.4,44.6,93,30.11,1.2,Calm,Calm,-,N/A,,Partly Cloudy,0,2012-11-06 10:19:00
2:39 AM,46.4,44.6,93,30.11,0.8,Calm,Calm,-,N/A,,Mist,0,2012-11-06 10:39:00
2:53 AM,46.0,45.0,96,30.10,1.0,Calm,Calm,-,N/A,,Mostly Cloudy,0,2012-11-06 10:53:00
2:56 AM,46.4,44.6,93,30.10,2.0,Calm,Calm,-,N/A,,Mostly Cloudy,0,2012-11-06 10:56:00
3:03 AM,46.4,46.4,100,30.10,9.0,Calm,Calm,-,N/A,,Overcast,0,2012-11-06 11:03:00
3:53 AM,48.9,48.0,97,30.09,10.0,Calm,Calm,-,N/A,,Overcast,0,2012-11-06 11:53:00
4:53 AM,48.9,46.9,93,30.08,9.0,Calm,Calm,-,N/A,,Overcast,0,2012-11-06 12:53:00
5:46 AM,50.0,48.2,94,30.07,3.0,Calm,Calm,-,N/A,,Overcast,0,2012-11-06 13:46:00
5:53 AM,50.0,48.9,96,30.07,3.0,Calm,Calm,-,N/A,,Overcast,0,2012-11-06 13:53:00
6:17 AM,50.0,48.2,94,30.06,2.5,Calm,Calm,-,N/A,,Overcast,0,2012-11-06 14:17:00
6:35 AM,50.0,48.2,94,30.06,1.8,Calm,Calm,-,N/A,,Overcast,0,2012-11-06 14:35:00
6:46 AM,50.0,48.2,94,30.06,2.0,Calm,Calm,-,N/A,,Overcast,0,2012-11-06 14:46:00
6:53 AM,50.0,48.9,96,30.06,2.0,Calm,Calm,-,N/A,,Overcast,0,2012-11-06 14:53:00
7:06 AM,50.0,48.2,94,30.06,1.5,Calm,Calm,-,0.01,,Overcast,0,2012-11-06 15:06:00
7:17 AM,50.0,48.2,94,30.06,1.8,Calm,Calm,-,0.01,,Overcast,0,2012-11-06 15:17:00
7:27 AM,50.0,48.2,94,30.06,2.0,Calm,Calm,-,0.01,,Overcast,0,2012-11-06 15:27:00
7:53 AM,51.1,50.0,96,30.07,3.0,Calm,Calm,-,0.01,,Overcast,0,2012-11-06 15:53:00
8:25 AM,51.8,50.0,94,30.07,3.0,Calm,Calm,-,N/A,,Overcast,0,2012-11-06 16:25:00
8:45 AM,51.8,51.8,100,30.06,2.5,Calm,Calm,-,N/A,,Overcast,0,2012-11-06 16:45:00
8:53 AM,52.0,51.1,97,30.06,2.5,Calm,Calm,-,N/A,,Overcast,0,2012-11-06 16:53:00
9:09 AM,51.8,51.8,100,30.06,3.0,Calm,Calm,-,N/A,,Overcast,0,2012-11-06 17:09:00
9:53 AM,54.0,52.0,93,30.06,9.0,SSE,5.8,-,N/A,,Overcast,150,2012-11-06 17:53:00
10:53 AM,54.0,52.0,93,30.06,10.0,SSE,8.1,-,N/A,,Overcast,150,2012-11-06 18:53:00
11:37 AM,55.4,51.8,88,30.06,10.0,South,5.8,-,N/A,,Overcast,190,2012-11-06 19:37:00
11:53 AM,55.0,51.1,86,30.05,10.0,South,5.8,-,N/A,,Overcast,180,2012-11-06 19:53:00
12:53 PM,55.9,51.1,84,30.04,10.0,South,6.9,-,N/A,,Overcast,170,2012-11-06 20:53:00
1:53 PM,55.9,51.1,84,30.04,10.0,SSE,3.5,-,N/A,,Overcast,150,2012-11-06 21:53:00
2:53 PM,55.9,52.0,87,30.04,10.0,Calm,Calm,-,N/A,,Overcast,0,2012-11-06 22:53:00
3:45 PM,55.4,51.8,88,30.04,10.0,SE,4.6,-,N/A,,Overcast,140,2012-11-06 23:45:00
3:53 PM,55.9,52.0,87,30.04,10.0,Calm,Calm,-,N/A,,Overcast,0,2012-11-06 23:53:00
4:03 PM,55.4,51.8,88,30.05,10.0,Calm,Calm,-,N/A,,Overcast,0,2012-11-07 00:03:00
4:53 PM,55.0,52.0,89,30.04,6.0,North,4.6,-,N/A,,Overcast,360,2012-11-07 00:53:00
5:53 PM,54.0,53.1,97,30.04,5.0,Calm,Calm,-,0.00,Rain,Light Rain,0,2012-11-07 01:53:00
6:00 PM,53.6,53.6,100,30.04,6.0,Calm,Calm,-,0.00,,Overcast,0,2012-11-07 02:00:00
6:53 PM,54.0,53.1,97,30.05,7.0,Calm,Calm,-,0.01,,Overcast,0,2012-11-07 02:53:00
7:53 PM,54.0,52.0,93,30.05,6.0,Calm,Calm,-,0.01,,Overcast,0,2012-11-07 03:53:00
8:53 PM,54.0,48.9,83,30.06,10.0,Calm,Calm,-,N/A,,Overcast,0,2012-11-07 04:53:00
9:53 PM,53.1,48.0,83,30.08,10.0,WNW,4.6,-,N/A,,Overcast,300,2012-11-07 05:53:00
10:53 PM,51.1,46.0,83,30.10,10.0,NW,4.6,-,N/A,,Clear,310,2012-11-07 06:53:00
11:53 PM,51.1,45.0,80,30.11,10.0,Calm,Calm,-,N/A,,Partly Cloudy,0,2012-11-07 07:53:00